Weather Service Report


224 
ASUS41 KCTP 310310
RWRCTP

REGIONAL WEATHER ROUNDUP
NATIONAL WEATHER SERVICE STATE COLLEGE PA
1100 PM EDT MON MAR 30 2015

Note: "fair" indicates few or no clouds below 12,000 feet with no 
significant weather and/or obstructions to visibility.

* = STATION THAT DOES NOT REPORT PRECIPITATION /E.G. RAIN...SNOW...ETC/
    THUNDER OR FOG.

PAZ002>004-007>009-013>016-020>023-029>032-310400-
WESTERN PENNSYLVANIA
  
CITY           SKY/WX    TMP DP  RH WIND       PRES   REMARKS
ERIE           CLEAR     32  26  78 CALM      29.97R                  
MEADVILLE      CLEAR     36  27  69 N3        29.94R                  
FRANKLIN*      PTCLDY    37  25  60 NW5       29.94R                  
NEW CASTLE     FAIR      42  26  53 N7        29.96R                  
BEAVER COUNTY  NOT AVBL                                               
BUTLER*        PTCLDY    45  25  45 W12       29.94R                  
PITTSBURGH INT PTCLDY    46  24  42 W9        29.94S                  
PITTSBURGH     CLEAR     45  20  36 SW12      29.93S                  
INDIANA*       MOCLDY    45  27  49 W9        29.94S                  
LATROBE        NOT AVBL                                               
WASHINGTON CO* MOCLDY    46  23  39 SW9       29.98S                  
$$

PAZ004>006-010>012-017>019-024>028-033>037-041-042-045-046-049>053-310400-
CENTRAL PENNSYLVANIA
  
CITY           SKY/WX    TMP DP  RH WIND       PRES   REMARKS
BRADFORD       PTCLDY    32  28  85 NW9       29.87S                  
DUBOIS         MOCLDY    42  25  50 NW10      29.87R                  
CLEARFIELD     PTCLDY    42  25  50 W5        29.87S                  
JOHNSTOWN      MOCLDY    43  23  45 W15G23    29.87F                  
ALTOONA        CLOUDY    46  23  40 W9G20     29.90S                  
STATE COLLEGE  MOCLDY    43  27  52 W7        29.88S                  
WILLIAMSPORT   LGT RAIN  43  31  62 NW12      29.89S                  
SELINSGROVE    CLOUDY    48  28  46 W7G17     29.89S                  
FT INDIANTOWN  PTCLDY    47  21  35 VRB6      29.88F                  
CAPITAL CITY   MOCLDY    45  22  40 W7        29.90F                  
HARRISBURG     PTCLDY    46  23  40 NW6       29.90S                  
YORK           CLEAR     47  22  37 SW8       29.91F                  
$$

PAZ038>040-043-044-047-048-054-055-060>062-067>071-310400-
EASTERN PENNSYLVANIA
  
CITY           SKY/WX    TMP DP  RH WIND       PRES   REMARKS
SCRANTON       LGT RAIN  40  32  73 W10       29.86S                  
MOUNT POCONO   LGT SNOW  35  30  82 NW9       29.82S                  
ALLENTOWN      CLOUDY    49  24  37 W8        29.87R                  
QUAKERTOWN*    PTCLDY    45  23  42 NW3       29.88S                  
READING        PTCLDY    46  21  37 W9        29.88S                  
LANCASTER      PTCLDY    41  23  48 W6        29.89F                  
COATESVILLE    CLEAR     46  23  39 W5        29.90S                  
POTTSTOWN      PTCLDY    44  21  40 W5        29.89F                  
BLUE BELL      CLEAR     46  27  46 CALM      29.88S                  
DOYLESTOWN     MOCLDY    45  22  40 W6        29.87R                  
WILLOW GROVE   NOT AVBL                                               
NORTH PHILA    CLEAR     50  20  30 W12       29.90R                  
PHILADELPHIA   FAIR      47  23  38 W9        29.91R                  
$$

Return to Home page


Western Regional Climate Center, wrcc@dri.edu